Location: Saint-Gilles les Bains
(21.0539°S, 55.2287°E)
Time: 23:40:38
(UTC+04:00)

ISS - Visible Passes

Search period start: 12 November 2018 00:00
Search period end: 22 November 2018 00:00
Orbit: 402 x 409 km, 51.6° (Epoch: 13 November)

Date Brightness Start Highest point End Pass type
(mag) Time Alt. Az. Time Alt. Az. Time Alt. Az.
12 Nov -2.5 18:59:26 10° SSW 19:02:20 28° SE 19:05:13 10° ENE visible
12 Nov -0.8 20:37:18 10° W 20:38:01 11° WNW 20:38:01 11° WNW visible
13 Nov -2.1 19:43:47 10° WSW 19:46:40 28° NW 19:48:34 16° N visible
